2008 SE82

Japanese version
Home page
Updated on December 13, 2009

---------------------------------------------------------------------

* Profile

* Orbital Elements

Epoch 2010 Jan. 4.0 TT = JDT 2455200.5                  MPC
M   7.72316              (2000.0)            P               Q
n   0.01137180     Peri.  300.41355     +0.77111241     +0.62728630
a  19.5846789      Node    21.35626     -0.43117841     +0.64053603
e   0.8363447      Incl.   17.42893     -0.46847715     +0.44297347
P  86.67           H   14.8           G   0.15           U   3

* Magnitudes Graph

        H = 14.8  G = 0.15

---------------------------------------------------------------------

The orbital elements are published on M.P.E.C. 2009-X12.
The magnitudes graphs are made with Comet for Windows.

---------------------------------------------------------------------

Copyright(C) Seiichi Yoshida (comet@aerith.net). All rights reserved.